Regional Weather Roundup
Issued by NWS

Home | Current Version | Previous Version | Text Only | Print | Product List | Glossary On
Versions: 1 2 3 4 5 6 7 8 9 10 11 12 13 14 15 16 17 18 19 20 21 22 23 24 25 26 27 28 29 30 31 32 33 34 35 36 37 38 39 40 41 42 43 44 45 46 47 48 49 50
000
ASUS43 KLSX 240959
RWRMO

WEATHER SUMMARY FOR MISSOURI
NATIONAL WEATHER SERVICE SPRINGFIELD MO
500 AM CDT FRI MAR 24 2017

NOTE: "FAIR" INDICATES FEW OR NO CLOUDS BELOW 12,000 FEET WITH NO
       SIGNIFICANT WEATHER AND/OR OBSTRUCTIONS TO VISIBILITY.
       CURRENT SKY AND/OR WEATHER CONDITIONS ARE NOT AVAILABLE FOR
       CHILLICOTHE AND FARMINGTON.

MOZ001>031-035>038-043-044-053-054-241100-
...NORTHERN AND WESTERN MISSOURI...

CITY           SKY/WX    TMP DP  RH WIND       PRES   REMARKS
KANSAS CTY INT PTCLDY    67  49  52 S15G29    29.78F
KANSAS C DTWN  PTCLDY    68  49  50 S9        29.77F
LEE`S SUMMIT   PTCLDY    66  49  54 S17G24    29.79F
ST JOSEPH      PTCLDY    64  51  62 S12       29.76F
CHILLICOTHE      N/A     53  47  79 SE3       29.83F
KIRKSVILLE     CLOUDY    61  32  33 S12       29.86F

$$
MOZ066>068-077>081-088>096-101>105-241100-
...SOUTHWEST MISSOURI...

CITY           SKY/WX    TMP DP  RH WIND       PRES   REMARKS
SPRINGFIELD    CLOUDY    59  46  62 S8        29.92R
JOPLIN         PTCLDY    67  45  45 S15       29.86F

$$
MOZ032>034-039>042-045>050-055>058-069>072-241100-
...CENTRAL MISSOURI...

CITY           SKY/WX    TMP DP  RH WIND       PRES   REMARKS
COLUMBIA       CLEAR     66  49  54 SW13      29.91R
JEFFERSON CITY CLEAR     72  48  42 SW8       29.91R
ROLLA          CLEAR     66  48  52 S17       29.89F
SEDALIA        PTCLDY    66  48  52 S14       29.88S
WARRENSBURG    CLOUDY    63  45  51 S14       29.83F
OSAGE BEACH    CLEAR    N/A N/A N/A S9        29.93R

$$
MOZ051-052-059>065-241100-
...EAST CENTRAL MISSOURI...

CITY           SKY/WX    TMP DP  RH WIND       PRES   REMARKS
ST LOUIS INTL  PTCLDY    62  49  62 S9        29.94R
SPIRIT OF STL  PTCLDY    66  51  58 S9        29.91R
ST CHARLES     CLOUDY    46  44  93 E9        29.92S

$$
MOZ072>076-082>087-097>100-106>115-241100-
...SOUTH CENTRAL AND SOUTHEAST MISSOURI...

CITY           SKY/WX    TMP DP  RH WIND       PRES   REMARKS
CAPE GIRARDEAU CLEAR     63  52  67 S16       30.03R
FARMINGTON     CLEAR     62  52  69 S18G24    29.99R
POPLAR BLUFF   CLEAR     63  54  72 S12       30.01S
WEST PLAINS    CLEAR     62  50  64 S12       29.97S

$$




USA.gov is the U.S. government's official web portal to all federal, state and local government web resources and services.